User: anonymous   Login
Location: Utrecht
(52.0830°N, 5.1330°E)
Time: 09:32:30
(UTC+01:00)
Language:

Cosmos 1092 Rocket - Orbit

View from above orbital plane
View from above orbital plane
View from above satellite
View from above satellite

Ground track
Ground track

The orbit data is extracted from the following two-line orbital elements,

1 11327U 79030B   16036.75200434 +.00000041 +00000-0 +25517-4 0  9993
2 11327 082.9518 305.2083 0028621 130.1999 257.4889 13.76976508850470
Epoch (UTC): 05 February 2016 18:02:53
Eccentricity: 0.0028621
inclination: 82.9518°
perigee height: 953 km
apogee height: 995 km
right ascension of ascending node: 305.2083°
argument of perigee: 130.1999°
revolutions per day: 13.76976508
mean anomaly at epoch: 257.4889°
orbit number at epoch: 85047

The dashed part of the orbit path shows where the satellite is in the earth's shadow,  

DLR